Вернуться в каталог

TITAN 3C TRANSTAGE DEB *

LostGTO
NORAD 34166·DEBRIS·🇺🇸 United States

Запущен Dec 21, 1965 с Cape Canaveral Space Force Station

Loading…

TLE

УстаревшееSource: Space-Track

Эпоха: Dec 6, 2025, 01:23 UTC

1 34166U 65108CZ  25340.05826804  .00000484  00000-0  62718-3 0  9990
2 34166  25.1183 234.0689 7215617 221.9658  51.5176  2.31538461  6853

Отслеживайте TITAN 3C TRANSTAGE DEB * в реальном времени с AllMySat

Download on the App Store